This demonstration page uses our WeatherBlox Daily Observations layout. Learn more.

Left ArrowRight Arrow

38.80484, -77.04692

Hourly Observations for December 2, 2021

Temp ( °F °C ) Dew Point ( °F °C ) Humidity (%) Winds ( mph kmh ) Pressure ( in mb ) Visibility ( mi km ) Precip ( " mm )
12:52 am 00:52 Cloudy 49 9.4 39 3.9 69 69 SSW 8 13 29.98 1015 10 16 N/A
1:52 am 01:52 Cloudy 48 8.9 39 3.9 71 71 SW 5 7 29.97 1015 10 16 N/A
2:52 am 02:52 Cloudy 47 8.3 39 3.9 74 74 S 6 9 29.95 1014 10 16 N/A
3:52 am 03:52 Cloudy 46 7.8 38 3.3 73 73 WSW 3 6 29.93 1014 10 16 N/A
4:52 am 04:52 Cloudy 46 7.8 38 3.3 73 73 S 5 7 29.91 1013 10 16 N/A
5:52 am 05:52 Mostly Cloudy 44 6.7 37 2.8 76 76 S 7 11 29.90 1013 10 16 N/A
5:55 am 05:55 Cloudy 44 6.7 37 2.8 76 76 SSW 7 11 29.91 1013 10 16 N/A
6:52 am 06:52 Mostly Cloudy 45 7.2 38 3.3 77 77 S 9 15 29.91 1013 10 16 N/A
7:52 am 07:52 Cloudy 47 8.3 38 3.3 71 71 S 7 11 29.90 1012 10 16 N/A
8:52 am 08:52 Cloudy 50 10 39 3.9 66 66 S 7 11 29.90 1012 10 16 N/A
9:52 am 09:52 Cloudy 50 10 39 3.9 66 66 S 12 19 29.87 1012 10 16 N/A
10:52 am 10:52 Sunny 54 12.2 39 3.9 57 57 SSW 8 13 29.85 1011 10 16 N/A
11:52 am 11:52 Mostly Cloudy 57 13.9 41 5 55 55 S 12 19 29.78 1009 10 16 N/A
12:52 pm 12:52 Mostly Cloudy 61 16.1 41 5 48 48 SSW 17 28 29.75 1008 10 16 N/A
1:52 pm 13:52 Partly Cloudy 61 16.1 42 5.6 50 50 SSW 13 20 29.73 1007 10 16 N/A
2:52 pm 14:52 Mostly Cloudy 63 17.2 42 5.6 47 47 S 12 19 29.70 1006 10 16 N/A
3:52 pm 15:52 Mostly Cloudy 64 17.8 42 5.6 45 45 SSW 13 20 29.69 1005 10 16 N/A
4:52 pm 16:52 Mostly Cloudy 63 17.2 42 5.6 47 47 SSW 13 20 29.68 1005 10 16 N/A
5:52 pm 17:52 Mostly Cloudy 64 17.8 41 5 43 43 SW 14 22 29.70 1006 10 16 N/A
6:52 pm 18:52 Cloudy 64 17.8 42 5.6 45 45 SW 13 20 29.72 1006 10 16 N/A
7:52 pm 19:52 Mostly Cloudy 62 16.7 42 5.6 48 48 SW 8 13 29.72 1007 10 16 N/A
8:52 pm 20:52 Cloudy 64 17.8 42 5.6 45 45 SW 8 13 29.73 1007 10 16 N/A
9:52 pm 21:52 Cloudy 64 17.8 42 5.6 45 45 WSW 7 11 29.76 1008 10 16 N/A
10:52 pm 22:52 Partly Cloudy 62 16.7 38 3.3 41 41 NW 12 19 29.77 1008 10 16 N/A
11:52 pm 23:52 Clear 62 16.7 35 1.7 37 37 NW 24 39 29.78 1009 10 16 N/A

Powered by AerisWeather